User: anonymous   Login
Location: Unspecified
(0.0000°N, 0.0000°E)
Time: 00:19:24
(UTC+00:00)
Language:

USA 153 - Orbit

View from above orbital plane
View from above orbital plane
View from above satellite
View from above satellite

Ground track
Ground track

The orbit data is extracted from the following two-line orbital elements,

1 26575U 00065A   17051.58272182 0.00000000  00000-0  00000-0 0    08
2 26575   5.9274  57.0698 0004662 278.9452  81.0080  1.00270000    01
Epoch (UTC): 20 February 2017 13:59:07
Eccentricity: 0.0004662
inclination: 5.9274°
perigee height: 35767 km
apogee height: 35806 km
right ascension of ascending node: 57.0698°
argument of perigee: 278.9452°
revolutions per day: 1.00270000
mean anomaly at epoch: 81.0080°
orbit number at epoch: 0

The dashed part of the orbit path shows where the satellite is in the earth's shadow,  

DLR